EW9532 Weather Reports


time (UTC)temp
F
wind
direction
speed
knots
gust
knots
rain 1hr
in
rain 24hr
in
rain mn
in
humidity
%
barometer
mb
20260904053055 85 335 2.6 7.8 0.00 0.00 0.00 80 1013.6
20260904052734 85 263 3.5 8.7 0.00 0.00 0.00 80 1013.6
20260904052231 85 221 1.7 7.0 0.00 0.00 0.00 80 1013.5
20260904051730 85 228 3.5 12.2 0.00 0.00 0.00 80 1013.6
20260904051552 85 101 2.6 11.3 0.00 0.00 0.00 79 1013.6
20260904051231 85 302 3.5 12.2 0.00 0.00 0.00 80 1013.5
20260904050719 85 330 4.3 7.8 0.00 0.00 0.00 80 1013.6
20260904050212 85 288 2.6 7.0 0.00 0.00 0.00 80 1013.8
20260904050058 85 98 1.7 6.1 0.00 0.00 0.00 79 1013.9
20260904045711 85 25 2.6 7.8 0.00 0.00 0.00 80 1013.8
20260904045207 86 252 1.7 7.8 0.00 0.00 0.00 80 1013.7
20260904044703 86 30 1.7 6.1 0.00 0.00 0.00 80 1013.7
20260904044601 85 186 1.7 7.0 0.00 0.00 0.00 79 1013.9
20260904044205 86 137 1.7 6.1 0.00 0.00 0.00 80 1013.7
20260904043702 86 320 3.5 7.0 0.00 0.00 0.00 79 1013.6
20260904043203 86 79 2.6 7.8 0.00 0.00 0.00 79 1013.6
20260904043112 85 333 2.6 7.0 0.00 0.00 0.00 79 1013.8
20260904042702 86 304 2.6 10.4 0.00 0.00 0.00 79 1013.5
20260904042203 86 179 3.5 10.4 0.00 0.00 0.00 79 1013.6
20260904041702 86 275 4.3 7.8 0.00 0.00 0.00 79 1013.5
20260904041601 85 309 2.6 7.0 0.00 0.00 0.00 78 1013.7
20260904041215 86 207 2.6 7.8 0.00 0.00 0.00 78 1013.4
20260904040708 86 18 3.5 7.8 0.00 0.00 0.00 78 1013.4
20260904040210 86 253 4.3 9.6 0.00 0.00 0.00 78 1013.4
20260904040054 86 330 3.5 10.4 0.00 0.00 0.00 77 1013.6
20260904035925 86 304 2.6 9.6 0.00 0.00 0.00 78 1013.4
20260904035157 86 196 3.5 9.6 0.00 0.00 0.00 77 1013.4
20260904034906 86 295 4.3 12.2 0.00 0.00 0.00 77 1013.3
20260904034853 86 356 3.5 9.6 0.00 0.00 0.00 77 1013.3
20260904034552 86 88 3.5 11.3 0.00 0.00 0.00 77 1013.5
20260904033644 86 315 3.5 10.4 0.00 0.00 0.00 77 1013.2
20260904033140 86 289 3.5 7.8 0.00 0.00 0.00 77 1013.1
20260904033102 86 186 2.6 9.6 0.00 0.00 0.00 76 1013.4
20260904032636 86 307 3.5 7.8 0.00 0.00 0.00 76 1013.0
20260904032132 87 49 3.5 7.8 0.00 0.00 0.00 76 1013.0
20260904031634 87 193 4.3 9.6 0.00 0.00 0.00 76 1013.0
20260904031556 86 306 4.3 9.6 0.00 0.00 0.00 75 1013.2
20260904031131 87 257 5.2 9.6 0.00 0.00 0.00 75 1012.8
20260904030630 87 40 4.3 7.8 0.00 0.00 0.00 75 1012.8
20260904030349 87 226 4.3 7.8 0.00 0.00 0.00 75 1012.7
20260904030103 86 116 3.5 9.6 0.00 0.00 0.00 75 1013.0
20260904025630 87 17 3.5 9.6 0.00 0.00 0.00 75 1012.6
20260904025130 87 197 5.2 9.6 0.00 0.00 0.00 75 1012.6
20260904024851 87 153 2.6 9.6 0.00 0.00 0.00 74 1012.5
20260904024608 87 184 2.6 9.6 0.00 0.00 0.00 74 1012.7
20260904024131 87 124 3.5 11.3 0.00 0.00 0.00 74 1012.5
20260904023630 87 137 3.5 11.3 0.00 0.00 0.00 74 1012.4
20260904023350 87 118 4.3 8.7 0.00 0.00 0.00 73 1012.5
20260904023114 87 314 3.5 8.7 0.00 0.00 0.00 73 1012.7
20260904022630 87 101 4.3 8.7 0.00 0.00 0.00 73 1012.5
20260904022143 88 205 4.3 8.7 0.00 0.00 0.00 72 1012.4
20260904021630 88 262 4.3 8.7 0.00 0.00 0.00 72 1012.3
20260904021557 87 269 4.3 9.6 0.00 0.00 0.00 71 1012.5
20260904021353 88 278 3.5 9.6 0.00 0.00 0.00 71 1012.2
20260904020630 88 174 4.3 9.6 0.00 0.00 0.00 71 1012.0
20260904020131 88 130 3.5 10.4 0.00 0.00 0.00 71 1012.2
20260904015630 88 71 4.3 10.4 0.00 0.00 0.00 71 1012.0
20260904015129 89 51 3.5 7.8 0.00 0.00 0.00 71 1011.9
20260904014628 89 74 3.5 9.6 0.00 0.00 0.00 70 1012.1
20260904014602 88 254 3.5 8.7 0.00 0.00 0.00 70 1012.2
20260904014353 89 118 3.5 9.6 0.00 0.00 0.00 70 1011.9
20260904013629 89 297 3.5 7.8 0.00 0.00 0.00 69 1011.7
20260904013129 89 147 2.6 10.4 0.00 0.00 0.00 69 1011.6
20260904013126 89 102 3.5 13.0 0.00 0.00 0.00 68 1011.8
20260904012628 89 281 6.1 10.4 0.00 0.00 0.00 68 1011.4
20260904012129 90 281 2.6 8.7 0.00 0.00 0.00 68 1011.4
20260904011629 90 158 4.3 10.4 0.00 0.00 0.00 67 1011.3
20260904011601 90 177 3.5 10.4 0.00 0.00 0.00 67 1011.6
20260904011129 90 356 4.3 10.4 0.00 0.00 0.00 67 1011.4
20260904010629 90 62 4.3 11.3 0.00 0.00 0.00 66 1011.3
20260904010347 91 233 6.1 13.9 0.00 0.00 0.00 65 1011.1
20260904010101 90 96 6.1 13.0 0.00 0.00 0.00 64 1011.5
20260904005629 91 328 4.3 13.9 0.00 0.00 0.00 64 1011.2
20260904005131 92 212 3.5 12.2 0.00 0.00 0.00 63 1011.1
20260904004629 92 210 6.1 12.2 0.00 0.00 0.00 63 1011.1
20260904004603 91 49 6.1 12.2 0.00 0.00 0.00 62 1011.3
20260904004129 92 225 5.2 9.6 0.00 0.00 0.00 61 1011.0
20260904003630 92 205 4.3 11.3 0.00 0.00 0.00 61 1011.0
20260904003617 93 295 5.2 11.3 0.00 0.00 0.00 60 1011.0
20260904003053 93 169 5.2 11.3 0.00 0.00 0.00 59 1011.3
20260904002628 94 80 3.5 11.3 0.00 0.00 0.00 59 1010.9
20260904002128 94 1 5.2 11.3 0.00 0.00 0.00 58 1010.9
20260904001629 95 307 3.5 10.4 0.00 0.00 0.00 57 1010.8
20260904001610 94 302 3.5 7.8 0.00 0.00 0.00 56 1011.2
20260904001129 95 122 2.6 8.7 0.00 0.00 0.00 56 1010.8
20260904000630 95 257 5.2 11.3 0.00 0.00 0.00 55 1010.8
20260904000129 95 304 5.2 11.3 0.00 0.00 0.00 54 1010.7
20260904000103 95 231 5.2 10.4 0.00 0.00 0.00 53 1011.1
20260903235629 96 326 5.2 10.4 0.00 0.00 0.00 53 1010.7
20260903235336 97 248 3.5 9.6 0.00 0.00 0.00 51 1010.7
20260903235324 96 13 5.2 10.4 0.00 0.00 0.00 52 1010.7
20260903234556 96 354 1.7 10.4 0.00 0.00 0.00 51 1010.9
20260903234129 97 302 5.2 11.3 0.00 0.00 0.00 49 1010.6
20260903233630 97 274 5.2 11.3 0.00 0.00 0.00 49 1010.7
20260903233349 97 286 4.3 10.4 0.00 0.00 0.00 49 1010.5
20260903233106 97 332 3.5 11.3 0.00 0.00 0.00 48 1010.9
20260903232609 97 60 4.3 10.4 0.00 0.00 0.00 50 1010.5
20260903232109 98 173 5.2 10.4 0.00 0.00 0.00 50 1010.4
20260903231609 98 159 5.2 13.0 0.00 0.00 0.00 49 1010.8
20260903231605 98 28 6.1 11.3 0.00 0.00 0.00 50 1010.4
20260903231101 98 283 5.2 13.9 0.00 0.00 0.00 50 1010.3
20260903230601 99 257 4.3 12.2 0.00 0.00 0.00 49 1010.3
20260903230057 99 168 2.6 11.3 0.00 0.00 0.00 49 1010.6
20260903225601 99 170 7.0 11.3 0.00 0.00 0.00 49 1009.9
20260903225101 100 227 3.5 9.6 0.00 0.00 0.00 48 1009.9
20260903224604 99 91 4.3 13.0 0.00 0.00 0.00 47 1010.1
20260903224600 100 167 4.3 11.3 0.00 0.00 0.00 47 1009.9
20260903224101 100 305 5.2 11.3 0.00 0.00 0.00 46 1009.8
20260903223550 101 111 5.2 10.4 0.00 0.00 0.00 45 1009.7
20260903223112 101 283 4.3 12.2 0.00 0.00 0.00 44 1009.9
20260903223045 101 77 4.3 9.6 0.00 0.00 0.00 44 1009.6
20260903222541 102 357 3.5 10.4 0.00 0.00 0.00 43 1009.7
20260903222039 103 304 2.6 10.4 0.00 0.00 0.00 43 1009.7
20260903221555 102 179 3.5 8.7 0.00 0.00 0.00 42 1010.0
20260903221535 103 95 3.5 7.8 0.00 0.00 0.00 42 1009.7
20260903221030 102 240 4.3 11.3 0.00 0.00 0.00 42 1009.7
20260903220529 102 266 3.5 11.3 0.00 0.00 0.00 42 1009.4
20260903220059 102 287 3.5 7.0 0.00 0.00 0.00 41 1009.8
20260903220029 102 335 4.3 7.8 0.00 0.00 0.00 42 1009.5
20260903215529 103 18 2.6 7.8 0.00 0.00 0.00 42 1009.5
20260903215029 103 71 4.3 8.7 0.00 0.00 0.00 41 1009.5
20260903214759 103 62 4.3 8.7 0.00 0.00 0.00 42 1009.4
20260903214553 102 292 2.6 7.8 0.00 0.00 0.00 41 1009.7
20260903214028 102 344 4.3 7.8 0.00 0.00 0.00 42 1009.6
20260903213530 103 242 2.6 8.7 0.00 0.00 0.00 42 1009.5
20260903213143 102 78 3.5 10.4 0.00 0.00 0.00 42 1009.9
20260903213031 103 86 3.5 10.4 0.00 0.00 0.00 42 1009.6
20260903212529 102 343 2.6 10.4 0.00 0.00 0.00 44 1009.6
20260903212029 102 16 2.6 9.6 0.00 0.00 0.00 44 1009.6
20260903211752 102 53 4.3 8.7 0.00 0.00 0.00 44 1009.6
20260903211556 102 25 4.3 9.6 0.00 0.00 0.00 44 1009.9
20260903211028 103 198 4.3 7.8 0.00 0.00 0.00 43 1009.7
20260903210529 102 289 3.5 9.6 0.00 0.00 0.00 44 1009.7
20260903210058 104 238 3.5 10.4 0.00 0.00 0.00 42 1010.1
20260903210029 104 287 5.2 9.6 0.00 0.00 0.00 42 1009.8
20260903205530 104 281 2.6 7.8 0.00 0.00 0.00 43 1009.8
20260903205029 103 307 3.5 7.8 0.00 0.00 0.00 45 1009.9
20260903204553 103 87 3.5 7.8 0.00 0.00 0.00 45 1010.2
20260903204529 103 215 3.5 7.8 0.00 0.00 0.00 46 1009.9
20260903204253 103 44 3.5 8.7 0.00 0.00 0.00 45 1010.1
20260903203756 103 335 3.5 8.7 0.00 0.00 0.00 46 1009.9
20260903203059 103 157 2.6 7.8 0.00 0.00 0.00 44 1010.3
20260903203043 104 346 3.5 7.8 0.00 0.00 0.00 44 1010.0
20260903202534 104 150 2.6 7.8 0.00 0.00 0.00 45 1010.1
20260903202042 104 213 3.5 7.0 0.00 0.00 0.00 46 1010.0
20260903201606 103 297 2.6 7.0 0.00 0.00 0.00 45 1010.5
20260903201543 103 72 3.5 7.8 0.00 0.00 0.00 45 1010.2
20260903201259 103 3 3.5 7.8 0.00 0.00 0.00 46 1010.2
20260903200526 103 321 2.6 6.1 0.00 0.00 0.00 47 1010.4
20260903200243 103 219 2.6 6.1 0.00 0.00 0.00 45 1010.3
20260903200056 103 169 2.6 6.1 0.00 0.00 0.00 45 1010.6
20260903195522 105 226 2.6 7.0 0.00 0.00 0.00 44 1010.4
20260903195016 104 236 2.6 7.0 0.00 0.00 0.00 44 1010.5
20260903194626 103 333 1.7 7.0 0.00 0.00 0.00 44 1010.9
20260903194517 104 58 1.7 7.0 0.00 0.00 0.00 43 1010.5
20260903194227 104 161 3.5 6.1 0.00 0.00 0.00 43 1010.6
20260903193509 103 11 1.7 6.1 0.00 0.00 0.00 44 1010.8
20260903193101 102 328 3.5 7.0 0.00 0.00 0.00 43 1011.1
20260903193008 103 356 3.5 6.1 0.00 0.00 0.00 44 1010.9
20260903192508 103 63 3.5 6.1 0.00 0.00 0.00 44 1010.8
20260903192006 103 270 3.5 7.0 0.00 0.00 0.00 44 1011.0
20260903191554 103 185 0.9 7.8 0.00 0.00 0.00 45 1011.3
20260903191506 103 208 1.7 7.8 0.00 0.00 0.00 45 1011.1
20260903191000 103 143 1.7 7.8 0.00 0.00 0.00 44 1011.1
20260903190454 103 313 1.7 7.0 0.00 0.00 0.00 45 1011.3
20260903190218 103 26 3.5 7.0 0.00 0.00 0.00 44 1011.3
20260903190054 102 42 3.5 7.0 0.00 0.00 0.00 45 1011.7
20260903185447 103 304 1.7 5.2 0.00 0.00 0.00 46 1011.6
20260903184942 103 245 1.7 4.3 0.00 0.00 0.00 45 1011.7
20260903184557 102 280 1.7 7.8 0.00 0.00 0.00 46 1011.9
20260903184438 102 301 1.7 7.8 0.00 0.00 0.00 47 1011.8
20260903183933 101 293 2.6 9.6 0.00 0.00 0.00 48 1011.8
20260903183432 101 143 5.2 9.6 0.00 0.00 0.00 47 1011.9
20260903183131 100 5 2.6 7.0 0.00 0.00 0.00 47 1012.2
20260903182946 101 349 3.5 7.8 0.00 0.00 0.00 47 1012.0
20260903182431 101 98 1.7 7.8 0.00 0.00 0.00 48 1012.2
20260903181933 101 66 3.5 7.8 0.00 0.00 0.00 48 1012.2
20260903181604 100 281 1.7 7.8 0.00 0.00 0.00 48 1012.5
20260903181431 100 172 1.7 7.0 0.00 0.00 0.00 49 1012.4
20260903180929 100 195 2.6 10.4 0.00 0.00 0.00 49 1012.4
20260903180423 100 259 4.3 10.4 0.00 0.00 0.00 49 1012.6
20260903180109 100 120 2.6 7.0 0.00 0.00 0.00 47 1012.8
20260903175925 100 181 2.6 7.0 0.00 0.00 0.00 49 1012.7
20260903175420 99 20 3.5 8.7 0.00 0.00 0.00 49 1012.7
20260903174915 99 297 3.5 8.7 0.00 0.00 0.00 49 1012.7
20260903174555 99 174 2.6 7.0 0.00 0.00 0.00 49 1013.1
20260903174410 100 297 2.6 7.8 0.00 0.00 0.00 50 1012.9
20260903173904 99 198 2.6 7.8 0.00 0.00 0.00 50 1013.0
20260903173403 99 279 3.5 7.8 0.00 0.00 0.00 51 1012.9
20260903173109 98 96 2.6 8.7 0.00 0.00 0.00 52 1013.3
20260903172902 99 52 2.6 7.8 0.00 0.00 0.00 51 1013.2
20260903172402 98 203 2.6 7.8 0.00 0.00 0.00 52 1013.2
20260903171902 98 221 2.6 7.0 0.00 0.00 0.00 52 1013.2
20260903171602 97 9 3.5 7.0 0.00 0.00 0.00 52 1013.5
20260903171403 98 50 3.5 7.0 0.00 0.00 0.00 52 1013.5
20260903171126 98 334 2.6 7.0 0.00 0.00 0.00 52 1013.6
20260903170403 97 8 3.5 7.0 0.00 0.00 0.00 54 1013.7
20260903170058 96 230 3.5 7.8 0.00 0.00 0.00 53 1013.9
20260903165903 97 205 2.6 8.7 0.00 0.00 0.00 54 1013.6
20260903165402 96 169 3.5 8.7 0.00 0.00 0.00 57 1013.7
20260903164902 96 281 3.5 9.6 0.00 0.00 0.00 56 1013.9
20260903164609 96 51 3.5 9.6 0.00 0.00 0.00 56 1014.1
20260903164402 96 89 2.6 9.6 0.00 0.00 0.00 56 1013.9
20260903163903 96 238 3.5 9.6 0.00 0.00 0.00 56 1014.0
20260903163402 95 115 3.5 9.6 0.00 0.00 0.00 57 1013.9
20260903163137 94 119 3.5 10.4 0.00 0.00 0.00 58 1014.0
20260903162902 95 217 3.5 8.7 0.00 0.00 0.00 59 1014.0
20260903162402 95 257 5.2 8.7 0.00 0.00 0.00 59 1014.0
20260903162124 94 116 2.6 7.8 0.00 0.00 0.00 59 1014.0
20260903161602 94 6 3.5 7.8 0.00 0.00 0.00 59 1014.2
20260903161401 94 295 2.6 7.8 0.00 0.00 0.00 60 1014.0
20260903160901 94 261 2.6 5.2 0.00 0.00 0.00 61 1014.1
20260903160400 93 341 3.5 9.6 0.00 0.00 0.00 62 1014.1
20260903160100 92 58 3.5 10.4 0.00 0.00 0.00 61 1014.2
20260903155902 93 259 4.3 9.6 0.00 0.00 0.00 62 1014.1
20260903155403 92 263 3.5 8.7 0.00 0.00 0.00 64 1013.9
20260903155126 92 205 3.5 9.6 0.00 0.00 0.00 65 1014.0
20260903155111 92 175 3.5 9.6 0.00 0.00 0.00 65 1013.9
20260903154554 91 105 3.5 8.7 0.00 0.00 0.00 64 1014.1
20260903153856 92 123 3.5 8.7 0.00 0.00 0.00 65 1013.9
20260903153355 91 331 1.7 7.8 0.00 0.00 0.00 66 1014.0
20260903153348 91 205 3.5 9.6 0.00 0.00 0.00 68 1014.1
20260903153106 90 174 2.6 8.7 0.00 0.00 0.00 67 1014.2
20260903152346 90 162 3.5 10.4 0.00 0.00 0.00 68 1014.2
20260903151842 89 264 5.2 10.4 0.00 0.00 0.00 70 1014.3
20260903151604 89 55 3.5 8.7 0.00 0.00 0.00 69 1014.4
20260903151343 89 248 3.5 7.8 0.00 0.00 0.00 71 1014.3
20260903150833 89 198 5.2 7.8 0.00 0.00 0.00 72 1014.2
20260903150329 89 168 3.5 7.0 0.00 0.00 0.00 73 1014.3
20260903150139 88 184 3.5 10.4 0.00 0.00 0.00 73 1014.5
20260903150106 88 54 3.5 8.7 0.00 0.00 0.00 74 1014.3
20260903145329 88 224 4.3 8.7 0.00 0.00 0.00 74 1014.3
20260903144829 87 340 3.5 8.7 0.00 0.00 0.00 75 1014.2
20260903144559 87 238 2.6 7.0 0.00 0.00 0.00 75 1014.5
20260903144328 87 273 3.5 7.0 0.00 0.00 0.00 75 1014.2
20260903143829 87 63 3.5 10.4 0.00 0.00 0.00 77 1014.2
20260903143328 87 150 3.5 10.4 0.00 0.00 0.00 77 1014.3
20260903143057 86 226 4.3 10.4 0.00 0.00 0.00 77 1014.5
20260903142831 87 216 3.5 8.7 0.00 0.00 0.00 77 1014.3
20260903142329 86 122 3.5 12.2 0.00 0.00 0.00 79 1014.3
20260903141829 86 11 3.5 12.2 0.00 0.00 0.00 79 1014.2
20260903141606 85 167 2.6 12.2 0.00 0.00 0.00 79 1014.5
20260903141328 86 283 1.7 7.0 0.00 0.00 0.00 80 1014.3
20260903140828 85 200 1.7 7.0 0.00 0.00 0.00 81 1014.5
20260903140328 85 203 1.7 7.0 0.00 0.00 0.00 81 1014.3
20260903140105 85 354 0.9 7.0 0.00 0.00 0.00 81 1014.6
20260903135831 85 252 1.7 7.0 0.00 0.00 0.00 82 1014.4
20260903135600 84 300 1.7 5.2 0.00 0.00 0.00 83 1014.3
20260903134830 84 109 2.6 6.1 0.00 0.00 0.00 83 1014.5
20260903134612 83 22 0.9 7.0 0.00 0.00 0.00 83 1014.5
20260903134556 84 230 1.7 7.0 0.00 0.00 0.00 84 1014.4
20260903133830 83 306 2.6 7.0 0.00 0.00 0.00 84 1014.3
20260903133330 83 101 1.7 4.3 0.00 0.00 0.00 84 1014.3
20260903133101 83 242 1.7 5.2 0.00 0.00 0.00 84 1014.4
20260903132829 83 247 0.9 5.2 0.00 0.00 0.00 85 1014.2
20260903132606 83 159 0.9 5.2 0.00 0.00 0.00 85 1014.3
20260903131829 83 189 1.7 5.2 0.00 0.00 0.00 85 1014.2
20260903131557 82 245 1.7 6.1 0.00 0.00 0.00 85 1014.3
20260903131329 83 150 2.6 5.2 0.00 0.00 0.00 85 1014.1
20260903130828 82 270 1.7 5.2 0.00 0.00 0.00 86 1014.0
20260903130328 82 152 1.7 4.3 0.00 0.00 0.00 86 1014.1
20260903130109 82 80 0.9 3.5 0.00 0.00 0.00 86 1014.4
20260903125830 82 217 0.9 3.5 0.00 0.00 0.00 86 1014.1
20260903125554 82 6 0.9 5.2 0.00 0.00 0.00 86 1014.1
20260903124829 82 341 1.7 5.2 0.00 0.00 0.00 86 1014.1
20260903124610 81 182 0.0 7.0 0.00 0.00 0.00 86 1014.2
20260903124552 82 271 0.9 5.2 0.00 0.00 0.00 86 1014.0
20260903124052 82 245 0.9 3.5 0.00 0.00 0.00 86 1013.9
20260903123329 82 354 0.9 4.3 0.00 0.00 0.00 86 1013.9
20260903123112 81 288 0.0 4.3 0.00 0.00 0.00 86 1014.2
20260903122830 82 122 0.9 4.3 0.00 0.00 0.00 86 1014.0
20260903122330 82 226 1.7 5.2 0.00 0.00 0.00 86 1013.9
20260903121829 82 324 1.7 5.2 0.00 0.00 0.00 86 1013.8
20260903121557 81 304 1.7 5.2 0.00 0.00 0.00 86 1014.1
20260903121329 82 157 1.7 5.2 0.00 0.00 0.00 86 1013.9
20260903120828 82 239 0.9 4.3 0.00 0.00 0.00 86 1014.0
20260903120329 82 65 1.7 4.3 0.00 0.00 0.00 86 1013.9
20260903120117 81 211 0.9 2.6 0.00 0.00 0.00 86 1014.1
20260903120106 82 193 0.0 2.6 0.00 0.00 0.00 86 1014.0
20260903115330 82 246 1.7 4.3 0.00 0.00 0.00 86 1013.9
20260903115054 82 275 1.7 5.2 0.00 0.00 0.00 86 1013.9
20260903114608 81 255 0.9 5.2 0.00 0.00 0.00 86 1014.1
20260903114330 82 316 1.7 5.2 0.00 0.00 0.00 86 1013.8
20260903113839 82 268 1.7 4.3 0.00 0.00 0.00 86 1013.7
20260903113328 82 41 2.6 4.3 0.00 0.00 0.00 86 1013.7
20260903113107 82 218 0.0 5.2 0.00 0.00 0.00 85 1013.9
20260903113054 82 107 0.9 5.2 0.00 0.00 0.00 86 1013.7
20260903112329 82 172 2.6 5.2 0.00 0.00 0.00 86 1013.9
20260903111829 82 244 1.7 4.3 0.00 0.00 0.00 86 1013.8
20260903111553 82 59 0.9 4.3 0.00 0.00 0.00 85 1014.0
20260903111329 82 180 1.7 4.3 0.00 0.00 0.00 86 1013.8
20260903110829 82 230 1.7 4.3 0.00 0.00 0.00 86 1013.8
20260903110328 82 31 0.9 4.3 0.00 0.00 0.00 85 1013.8
20260903110105 82 353 1.7 5.2 0.00 0.00 0.00 85 1014.0
20260903105836 82 203 1.7 4.3 0.00 0.00 0.00 85 1013.9
20260903105332 82 3 0.9 5.2 0.00 0.00 0.00 85 1013.7
20260903104843 82 39 1.7 5.2 0.00 0.00 0.00 85 1013.7
20260903104556 82 31 0.9 4.3 0.00 0.00 0.00 84 1013.8
20260903104332 83 323 0.9 5.2 0.00 0.00 0.00 85 1013.7
20260903103833 83 309 0.9 5.2 0.00 0.00 0.00 85 1013.7
20260903103328 83 167 1.7 6.1 0.00 0.00 0.00 85 1013.5
20260903103056 82 350 1.7 7.0 0.00 0.00 0.00 84 1013.8
20260903102829 83 101 1.7 7.0 0.00 0.00 0.00 85 1013.5
20260903102551 83 286 1.7 7.0 0.00 0.00 0.00 85 1013.6
20260903102108 83 83 1.7 7.0 0.00 0.00 0.00 84 1013.6
20260903101552 82 174 1.7 7.0 0.00 0.00 0.00 84 1013.8
20260903101329 83 50 1.7 7.0 0.00 0.00 0.00 84 1013.6
20260903100829 83 184 1.7 5.2 0.00 0.00 0.00 84 1013.6
20260903100552 83 69 2.6 5.2 0.00 0.00 0.00 84 1013.7
20260903100105 82 270 1.7 7.0 0.00 0.00 0.00 83 1013.8
20260903095830 83 354 1.7 6.1 0.00 0.00 0.00 84 1013.6
20260903095331 83 143 2.6 7.8 0.00 0.00 0.00 84 1013.7
20260903094832 83 166 2.6 7.8 0.00 0.00 0.00 84 1013.6
20260903094558 83 302 1.7 7.0 0.00 0.00 0.00 83 1013.9
20260903094330 83 288 3.5 7.8 0.00 0.00 0.00 83 1013.7
20260903093830 83 165 1.7 7.0 0.00 0.00 0.00 83 1013.8
20260903093329 83 333 3.5 7.8 0.00 0.00 0.00 83 1014.0
20260903093058 83 198 3.5 8.7 0.00 0.00 0.00 83 1014.2
20260903092829 83 4 2.6 7.8 0.00 0.00 0.00 83 1013.9
20260903092329 83 266 2.6 7.0 0.00 0.00 0.00 83 1014.1
20260903091829 83 18 3.5 8.7 0.00 0.00 0.00 83 1014.0
20260903091626 83 310 2.6 8.7 0.00 0.00 0.00 83 1014.2
20260903091329 83 183 1.7 9.6 0.00 0.00 0.00 83 1013.9
20260903090828 83 307 4.3 9.6 0.00 0.00 0.00 83 1014.0
20260903090616 83 246 3.5 10.4 0.00 0.00 0.00 83 1014.1
20260903085829 83 257 3.5 10.4 0.00 0.00 0.00 83 1014.1
20260903085329 83 149 3.5 8.7 0.00 0.00 0.00 83 1014.2
20260903084829 83 208 3.5 8.7 0.00 0.00 0.00 83 1014.0
20260903084558 83 290 4.3 8.7 0.00 0.00 0.00 82 1014.4
20260903084329 83 278 5.2 8.7 0.00 0.00 0.00 83 1014.2
20260903083829 83 53 2.6 8.7 0.00 0.00 0.00 83 1014.2
20260903083329 83 144 1.7 7.0 0.00 0.00 0.00 83 1014.3
20260903083106 83 287 2.6 6.1 0.00 0.00 0.00 82 1014.5
20260903082830 84 271 3.5 5.2 0.00 0.00 0.00 82 1014.4
20260903082330 84 274 2.6 9.6 0.00 0.00 0.00 82 1014.3
20260903081830 84 41 2.6 9.6 0.00 0.00 0.00 82 1014.2
20260903081607 83 203 2.6 8.7 0.00 0.00 0.00 82 1014.6
20260903081330 84 12 1.7 7.0 0.00 0.00 0.00 82 1014.2
20260903080828 84 348 3.5 5.2 0.00 0.00 0.00 82 1014.3
20260903080556 84 244 1.7 5.2 0.00 0.00 0.00 82 1014.3
20260903080103 83 162 2.6 7.8 0.00 0.00 0.00 82 1014.5
20260903075829 84 203 2.6 7.0 0.00 0.00 0.00 82 1014.3
20260903075329 84 354 1.7 7.0 0.00 0.00 0.00 82 1014.3
20260903074829 84 13 2.6 7.0 0.00 0.00 0.00 82 1014.3
20260903074627 84 356 1.7 10.4 0.00 0.00 0.00 82 1014.5
20260903074555 84 339 2.6 10.4 0.00 0.00 0.00 82 1014.3
20260903073828 84 126 2.6 10.4 0.00 0.00 0.00 82 1014.3
20260903073329 84 168 3.5 7.8 0.00 0.00 0.00 82 1014.3
20260903073059 84 205 3.5 7.0 0.00 0.00 0.00 81 1014.5
20260903072831 84 216 3.5 7.8 0.00 0.00 0.00 82 1014.2
20260903072330 84 228 3.5 9.6 0.00 0.00 0.00 82 1014.3
20260903072314 84 314 3.5 9.6 0.00 0.00 0.00 81 1014.2
20260903071607 84 216 3.5 10.4 0.00 0.00 0.00 81 1014.5
20260903071330 85 324 3.5 7.8 0.00 0.00 0.00 81 1014.5
20260903071323 85 29 3.5 13.9 0.00 0.00 0.00 81 1014.5
20260903070328 85 340 5.2 13.9 0.00 0.00 0.00 81 1014.5
20260903070115 84 151 2.6 8.7 0.00 0.00 0.00 80 1014.6
20260903065829 85 245 3.5 7.0 0.00 0.00 0.00 81 1014.5
20260903065329 85 262 3.5 7.0 0.00 0.00 0.00 81 1014.4
20260903064829 85 60 3.5 8.7 0.00 0.00 0.00 81 1014.6
20260903064555 84 41 2.6 8.7 0.00 0.00 0.00 81 1014.6
20260903064552 85 56 3.5 8.7 0.00 0.00 0.00 81 1014.6
20260903063829 85 268 4.3 7.8 0.00 0.00 0.00 81 1014.6
20260903063328 85 290 1.7 8.7 0.00 0.00 0.00 81 1014.5
20260903063105 84 296 2.6 13.9 0.00 0.00 0.00 81 1014.7
20260903063056 85 101 3.5 11.3 0.00 0.00 0.00 81 1014.6
20260903062556 85 288 3.5 11.3 0.00 0.00 0.00 81 1014.6
20260903061829 85 198 3.5 7.0 0.00 0.00 0.00 81 1014.5
20260903061611 84 212 1.7 7.8 0.00 0.00 0.00 81 1014.7
20260903061329 85 304 0.9 6.1 0.00 0.00 0.00 82 1014.6
20260903061054 85 132 2.6 7.0 0.00 0.00 0.00 81 1014.6
20260903060328 85 250 2.6 8.7 0.00 0.00 0.00 81 1014.6
20260903060100 85 259 2.6 7.8 0.00 0.00 0.00 81 1014.8
20260903055830 85 98 3.5 8.7 0.00 0.00 0.00 81 1014.6
20260903055330 85 112 2.6 7.0 0.00 0.00 0.00 81 1014.7
20260903055101 85 103 1.7 8.7 0.00 0.00 0.00 81 1014.7
20260903054602 85 149 3.5 8.7 0.00 0.00 0.00 80 1014.9
20260903054329 85 53 3.5 8.7 0.00 0.00 0.00 81 1014.7
20260903053829 85 172 0.9 7.8 0.00 0.00 0.00 80 1014.7
20260903053329 85 85 3.5 7.8 0.00 0.00 0.00 80 1014.7